STARLINK-36950, 67992

Orbit data source: Space-Track

STARLINK-36950, 67992 is a payload satellite owned by SpaceX/Seattle (US) in LEO that was launched on Fri, 27 Feb 2026 UTC via an FALCON 9 launch vehicle from the Air Force Eastern Test Range (AFETR). Payload-class satellites include a variety of spacecraft equipped with specific instruments for various scientific and technological missions. These include communications satellites like Starlink; space stations such as the ISS; scientific satellites like the Hubble; Earth observation satellites from companies like Planet Labs, Umbra, and HawkEye 360; GPS; miniature CubeSats for education and research; and military/defense satellites.

Loading next visibility...
Identifier
67992, 2026-039G
Orbit
LEO
Country
Flag of USUS
Related business
Manufacturer
SpaceX/Seattle
Mission
Operational Commercial Communications
Bus & Motor
STARLINK V2MO, Unknown motor
Mass
575 kg wet, ~530 kg dry
Launch date (UTC)
2026-02-27 (2 months ago)
Launch vehicle
FALCON 9
Launch site
Air Force Eastern Test Range (AFETR)
Object type
Payload
Rocket body
Debris
Shape & HBR
Box + 2 Pan, 17.7 m
Radar Cross Section
36.964 m²

Expand to show TLE details & history
Last TLE update: 8 hours ago

TLE from 8 hours ago
0 STARLINK-36950
1 67992U 26039G   26112.18038654  .00015197  00000-0  56008-3 0  9995
2 67992  42.9997 163.4261 0001099 294.9564  65.1173 15.27612710  8357
Epoch: 2026-04-22T04:19Z
TLE epoch observation values (Epoch: 2026-04-22T04:19:45.397Z)
Latitude
-0.00003°
Longitude
-111.7586°
Altitude
482.409 km
Speed
7.626 km/s
True Right ascension
10h 53m 42s
True Declination
0° 00' 00"
Sunlit
Object was in full shadow at epoch
Visualization orbit readout
Latitude
Unknown
Longitude
Unknown
Altitude
Unknown
Speed
Unknown
Apparent Right ascension
Unknown
Apparent Declination
Unknown
Sunlit
N/A
Visualization observer readout
Local Sidereal Time
19:01:50
Azimuth
Unknown
Elevation
Unknown
Doppler factor
Unknown
Orbital elements
Apogee altitude
485.651 km
Perigee altitude
484.142 km
Semi-major axis
6,863.033 km
Eccentricity
0.00011
Inclination
42.9997°
RAAN
163.4261°
Arg. of periapsis
294.9564°
True anomaly
65.12873°
Mean anomaly
65.1173°
Eccentric anomaly
65.12301°
Mean motion
3.81741 °/min
Orbital period
94.3 mins
BSTAR
0.00056008
Loading maneuver chart data...
Computing Atmospheric mass density...
Loading historical data...
Loading historical data...
Loading historical data...
Loading historical data...
Loading historical data...
Loading historical data...
Loading historical data...

Documentation

Showing up to 5 results
|